Regional Weather Roundup
Issued by NWS Northern Indiana

Home | Current Version | Previous Version | Text Only | Print | Product List | Glossary Off
Versions: 1 2 3 4 5 6 7 8 9 10 11 12 13 14 15 16 17 18 19 20 21 22 23 24 25 26 27 28 29 30 31 32 33 34 35 36 37 38 39 40 41 42 43 44 45 46 47 48 49 50

000
ASUS43 KIWX 230810
RWRIWX

KIWX WEATHER ROUNDUP
NATIONAL WEATHER SERVICE NORTHERN INDIANA
400 AM EDT WED JUL 23 2014

NOTE: "FAIR" INDICATES FEW OR NO CLOUDS BELOW 12,000 FEET WITH NO
SIGNIFICANT WEATHER AND/OR OBSTRUCTIONS TO VISIBILITY.

* THESE STATIONS ARE NOT UNDER NWS QUALITY CONTROL. THEY ALSO MAY NOT
  REPORT WEATHER SUCH AS PRECIPITATION OR FOG.

INZ001>027-230900-
NORTHERN INDIANA

CITY           SKY/WX    TMP DP  RH WIND       PRES   REMARKS
GARY*          CLOUDY    69  63  81 N13G22    30.04R
VALPARAISO     CLOUDY    70  68  93 NW7       30.00S FOG
MICHIGAN CITY* CLOUDY    68  68 100 N5        30.00R
LAPORTE*       CLOUDY    68  68 100 S3        30.01S
KNOX*          CLOUDY    69  66  91 CALM      29.98F
SOUTH BEND     LGT RAIN  70  65  84 SW5       29.98F
GOSHEN         CLOUDY    70  66  87 SW8       29.95F
MONTICELLO*    CLOUDY    74  70  85 SW3       29.99F
LOGANSPORT*    CLOUDY    72  68  88 W3        30.01S
ROCHESTER*     TSTM      72  68  88 W8        30.05R
WARSAW*        LGT RAIN  68  64  88 W9        30.00F
ANGOLA*        PTCLDY    72  64  78 W6        29.95R
FORT WAYNE     CLOUDY    75  63  66 NW12G22   29.99F THUNDER
HUNTINGTON*    CLOUDY    74  64  71 NW7G18    30.00R
PERU/GRISSOM   MOCLDY    73  73 100 W2        30.01R
MARION*        MOCLDY    71  68  90 W3        30.01R

$$
INZ028>050-230900-
CENTRAL INDIANA

CITY           SKY/WX    TMP DP  RH WIND       PRES   REMARKS
LAFAYETTE      CLOUDY    72  69  90 CALM      29.99S
KOKOMO*        PTCLDY    73  70  88 W8        30.00S
MUNCIE*        CLEAR     74  67  78 SW5       30.01S
INDIANAPOLIS   CLOUDY    73  69  87 SW7       29.99F

$$
MIZ043>046-050>051-056>058-064>065-071>073-077>080-230900-
SOUTHWEST LOWER MICHIGAN

CITY           SKY/WX    TMP DP  RH WIND       PRES   REMARKS
BATTLE CREEK   CLOUDY    69  64  84 W10       29.94F
BENTON HARBOR  CLOUDY    69  67  93 VRB3      29.99S
COLDWATER*     LGT RAIN  71  66  86 W12G20    29.93S
HILLSDALE*     CLOUDY    73  62  69 SW3       29.95R
HOLLAND        CLOUDY    67  61  81 N7G17     30.00S
GRAND RAPIDS   CLOUDY    69  64  84 N10       29.97F
KALAMAZOO      CLOUDY    69  65  86 W10       29.96F
STURGIS*       LGT RAIN  68  66  94 W15G22    29.96F
THREE RIVERS*  LGT RAIN  69  67  94 W9        29.95F

$$
OHZ001>008-015>018-024>025-230900-
NORTHWEST OHIO

CITY           SKY/WX    TMP DP  RH WIND       PRES   REMARKS
WAUSEON*       MOCLDY    73  72  94 SW10      29.97R FOG
DEFIANCE       CLOUDY    74  70  87 SW12      29.97R FOG
FINDLAY        TSTM      73  70  90 W7        29.97R FOG
TOLEDO EXPRESS CLOUDY    73  71  93 SW13      29.96R FOG
TOLEDO METCALF LGT RAIN  73  69  87 SW5       29.97R
LIMA           LGT RAIN  76  68  76 W10       30.01R

$$
&&



USA.gov is the U.S. government's official web portal to all federal, state and local government web resources and services.